Dewpoint
-6 -8 -7 -3 -3 -1 1 -1 -0 -1 -1 10 11 11 11 11 12 11 13 14 13 13 14 14 13 12 11 10 9 9 8 7 7 8 8 8 8 8 7 5 2 -4 -12 -15 -15 -14 -14 -14 -14
-9 -9 -4 -2 -1 -2 -4 -3 -1 -3 -0 11 10 11 10 11 11 12 14 14 14 14 13 14 13 13 12 11 10 9 9 8 8 9 9 9 8 6 3 -3 -12 -15 -15 -15 -15 -14 -14 -14 -14
-9 -9 -3 -2 -1 -1 -4 -5 -3 1 2 7 10 11 11 11 11 12 14 14 14 13 13 13 13 13 14 13 10 10 9 9 9 9 9 8 5 -2 -12 -15 -15 -14 -14 -15 -15 -15 -14 -14 -14
-9 -7 -5 -3 -1 -4 -4 -6 -5 -6 -8 -0 10 10 11 11 12 13 13 13 13 12 13 13 13 13 14 13 10 9 9 9 10 9 7 -1 -12 -15 -14 -14 -14 -14 -15 -15 -14 -14 -14 -15 -15
-8 -4 -4 -3 -3 -5 -6 -6 -7 -8 -8 -6 7 10 11 11 12 12 13 13 13 12 12 13 13 13 13 10 10 10 10 10 9 2 -10 -15 -14 -13 -13 -14 -14 -15 -14 -14 -14 -14 -14 -15 -15
-5 -5 -2 -1 -2 -6 -7 -7 -7 -7 -5 4 9 10 11 11 11 13 13 13 13 12 12 13 13 12 11 11 11 11 10 7 -5 -14 -14 -13 -13 -13 -14 -14 -14 -14 -14 -14 -14 -15 -15 -16 -16
-6 -4 -2 -3 -4 -4 -6 -7 -7 -5 6 4 9 11 10 11 11 12 13 12 13 13 12 13 11 11 11 11 11 9 2 -9 -14 -13 -10 -12 -13 -13 -13 -14 -13 -13 -13 -14 -15 -16 -19 -20 -21
-2 -5 -4 -4 -4 -5 -7 -7 -8 -5 8 9 8 9 9 8 10 12 13 12 12 12 12 13 11 11 11 11 8 -1 -11 -13 -12 -9 -10 -13 -13 -13 -13 -13 -13 -13 -14 -15 -18 -19 -19 -19 -20
-2 -3 -3 -5 -5 -6 -8 -8 -8 -1 7 8 8 8 8 8 10 12 12 12 12 12 12 13 12 12 11 8 -3 -10 -12 -12 -11 -12 -13 -12 -13 -13 -13 -12 -13 -14 -15 -18 -16 -17 -18 -20 -22
-3 0 1 -3 -8 -6 -7 -8 -6 0 7 7 7 7 8 9 10 12 12 12 11 12 12 12 12 12 6 -4 -9 -11 -11 -12 -12 -12 -12 -12 -13 -13 -12 -12 -13 -15 -17 -15 -16 -18 -20 -21 -21
-3 0 -2 -3 -4 -5 -6 -6 -4 -4 0 2 5 7 8 9 9 12 11 11 11 12 12 13 12 9 3 -2 -7 -10 -11 -11 -11 -12 -12 -12 -12 -12 -12 -13 -14 -16 -14 -15 -17 -18 -18 -19 -19
1 -1 -3 -2 -1 -2 -3 -5 -5 -5 -4 -6 -3 5 7 8 8 9 10 11 11 11 12 12 10 6 3 -2 -6 -9 -11 -11 -11 -11 -11 -11 -11 -11 -12 -13 -15 -14 -14 -15 -17 -17 -17 -18 -18
1 0 1 0 -0 -2 -2 -2 -3 -6 -3 -7 -2 3 6 6 6 9 10 10 10 11 12 12 8 4 1 -3 -8 -10 -10 -10 -10 -10 -10 -10 -10 -11 -12 -13 -14 -14 -14 -16 -16 -16 -17 -17 -17
3 2 2 2 2 0 -3 -2 -5 -4 -5 -9 -5 0 6 6 6 9 10 9 10 10 11 11 8 5 -1 -6 -9 -10 -10 -9 -9 -10 -10 -10 -10 -12 -12 -14 -14 -14 -15 -16 -16 -16 -16 -17 -18
3 4 2 2 -1 -1 -2 -3 -6 -4 -5 -5 -4 -0 5 7 9 7 5 8 9 10 11 11 7 2 -4 -7 -8 -8 -8 -8 -9 -10 -10 -10 -11 -12 -13 -14 -14 -14 -15 -15 -15 -15 -16 -18 -21
4 4 6 2 -1 -1 -4 2 -2 -3 -2 1 2 3 5 5 2 6 7 7 7 10 11 10 6 1 -4 -6 -6 -7 -6 -6 -7 -9 -10 -11 -12 -12 -14 -13 -13 -14 -14 -14 -14 -15 -18 -20 -21
4 7 5 4 0 0 -3 1 -3 -4 1 3 4 5 6 6 7 7 7 7 7 9 10 10 5 0 -3 -4 -4 -4 -4 -4 -6 -8 -11 -12 -12 -13 -13 -13 -13 -14 -13 -14 -15 -17 -18 -20 -21
7 6 4 4 1 -1 0 0 -1 -2 2 2 1 3 6 7 5 3 6 7 7 9 10 10 6 3 0 -1 -1 -0 -1 -2 -5 -7 -11 -12 -12 -13 -12 -12 -13 -13 -13 -14 -15 -17 -19 -22 -23
5 6 6 3 1 3 4 3 2 -1 -0 2 2 4 6 6 -1 7 8 8 8 8 10 10 9 6 3 1 1 1 -0 -1 -4 -7 -10 -12 -12 -12 -11 -12 -12 -13 -13 -15 -16 -17 -21 -23 -24
5 6 7 5 3 3 3 4 3 1 0 -1 -0 2 3 2 4 5 5 7 7 7 9 10 9 7 4 1 0 0 -0 -1 -4 -7 -9 -12 -12 -11 -11 -11 -12 -13 -14 -16 -17 -19 -22 -24 -26
6 7 6 6 5 4 4 5 2 1 1 1 -1 -1 -1 -1 0 4 5 5 7 7 7 9 9 6 4 2 1 1 0 -1 -4 -6 -9 -11 -11 -10 -11 -12 -14 -14 -15 -17 -18 -21 -23 -25 -27
7 5 5 6 6 8 4 8 4 2 2 -1 -1 -2 -3 -3 0 3 4 5 6 6 7 8 8 6 4 2 1 0 -1 -2 -4 -6 -9 -11 -11 -10 -11 -13 -14 -15 -17 -17 -20 -22 -24 -26 -27
6 4 5 5 6 7 6 8 5 2 2 1 -1 -2 -2 -3 -2 2 3 2 4 6 6 7 7 5 4 3 2 0 -1 -2 -4 -6 -10 -11 -10 -10 -13 -14 -15 -17 -18 -19 -21 -23 -25 -26 -27
4 5 5 6 7 10 7 7 6 3 3 1 -0 -1 -0 -1 -3 1 3 5 5 6 6 6 6 5 4 3 2 2 4 1 -2 -6 -9 -10 -9 -10 -13 -14 -15 -18 -18 -20 -22 -24 -26 -26 -26
5 7 10 11 10 10 5 7 4 3 2 2 2 2 2 1 -1 1 4 5 5 5 5 5 5 5 4 3 2 3 1 -0 -4 -7 -9 -9 -8 -9 -11 -12 -15 -19 -19 -21 -23 -25 -25 -26 -26
6 6 9 10 9 8 6 8 6 3 1 3 3 2 2 2 1 1 3 4 4 5 5 5 5 5 4 3 2 2 1 -1 -4 -7 -9 -8 -7 -9 -11 -13 -15 -19 -20 -22 -24 -25 -25 -25 -26
6 8 5 8 7 9 7 5 3 1 1 1 2 2 2 2 3 3 3 4 4 4 4 4 4 4 3 3 2 2 1 1 -4 -7 -7 -7 -7 -8 -10 -12 -17 -19 -21 -23 -24 -25 -25 -25 -26
5 4 8 8 11 11 8 7 6 3 2 2 2 2 2 2 2 3 3 4 4 4 4 4 4 4 3 3 2 4 5 1 -4 -6 -5 -7 -7 -8 -9 -12 -17 -19 -22 -23 -24 -24 -25 -26 -28
6 7 8 7 8 8 8 7 2 3 3 3 2 1 -0 2 3 2 3 3 3 3 4 4 3 4 3 3 3 6 4 -0 -4 -3 -5 -6 -7 -8 -10 -12 -15 -20 -22 -24 -24 -24 -26 -27 -28
6 7 7 9 9 9 8 8 3 3 2 3 2 -0 2 -3 1 2 2 2 2 3 3 3 3 3 3 1 6 6 4 -1 -2 -2 -4 -6 -7 -8 -9 -10 -18 -21 -23 -24 -25 -25 -27 -28 -29
Wind_Speed
5 6 2 4 3 4 3 6 2 5 3 4 5 1 2 2 4 3 8 19 23 27 25 22 21 22 23 21 20 19 18 16 15 14 13 11 10 9 8 6 4 2 2 2 3 4 5 6 7
4 4 4 2 4 1 5 4 8 6 3 3 1 3 1 3 1 5 15 16 26 26 24 25 23 21 22 22 22 21 19 17 15 14 13 12 11 9 8 6 4 3 2 2 4 5 6 7 8
4 4 2 3 4 6 5 6 3 3 7 7 2 2 3 3 4 12 14 22 28 26 25 23 22 22 19 19 21 21 19 17 15 14 12 11 10 9 8 7 4 2 0 2 4 6 7 7 7
3 4 1 3 7 6 6 5 2 10 20 11 5 3 2 4 6 15 22 24 28 27 25 24 23 22 21 19 19 19 18 16 14 13 12 12 11 10 8 6 4 2 1 2 4 6 7 8 9
6 2 1 3 6 5 7 9 14 8 6 16 11 6 4 8 11 18 24 26 28 28 26 23 22 23 22 19 17 17 16 15 13 13 12 11 10 9 7 5 4 2 2 3 5 7 8 10 10
4 3 1 5 5 5 6 9 8 5 12 9 8 9 6 12 14 25 27 26 25 26 26 26 23 22 19 18 17 17 16 16 16 15 14 12 10 8 6 5 3 2 3 4 6 8 9 10 11
5 4 4 4 5 7 4 4 3 6 7 6 5 5 6 19 18 24 28 25 25 25 27 28 26 24 22 20 19 19 19 19 18 17 14 12 10 8 7 4 2 2 3 5 5 7 8 10 12
6 4 3 5 2 13 5 4 10 9 4 4 11 6 6 23 25 25 27 26 25 26 26 26 25 26 25 23 22 22 21 20 19 17 16 14 11 9 6 4 2 0 1 3 4 5 7 10 12
7 2 5 6 7 8 4 4 4 8 4 5 10 8 7 13 27 30 30 29 29 30 29 28 27 27 25 24 24 24 22 21 20 19 16 14 12 9 6 4 2 1 2 3 5 7 9 11 12
5 4 8 9 7 9 6 4 10 5 6 9 14 18 14 17 31 36 38 39 38 36 35 32 31 29 27 26 26 24 23 22 21 18 16 14 11 9 7 5 3 1 1 4 6 8 8 9 10
6 8 5 8 19 22 10 3 10 5 5 20 21 27 21 23 33 38 40 40 39 37 37 35 32 30 29 28 26 25 23 22 19 18 16 14 12 10 8 6 4 1 2 4 5 6 6 7 10
4 11 10 9 16 12 5 6 3 12 22 29 26 24 25 29 36 41 42 43 40 40 38 35 33 32 30 28 27 26 24 22 19 18 17 14 12 10 9 6 3 2 2 4 4 5 8 10 9
5 5 20 22 19 16 18 17 13 12 30 24 26 24 30 33 36 40 41 40 40 40 40 37 35 32 31 30 28 27 25 23 21 19 16 13 12 11 9 6 5 4 4 3 4 6 7 7 6
5 9 15 25 22 13 9 15 8 23 17 20 24 28 32 37 39 42 44 43 42 40 40 39 37 34 32 31 29 27 25 22 21 19 17 15 13 12 10 7 6 5 4 1 3 6 5 5 5
9 7 13 12 8 7 12 9 10 31 18 20 24 29 34 37 39 44 44 45 44 42 41 42 39 36 34 32 30 28 26 24 21 19 18 17 15 13 10 9 7 4 1 2 4 4 5 6 6
5 4 7 1 1 4 8 11 10 20 19 25 28 32 36 39 40 44 45 44 43 43 43 41 41 40 37 34 31 29 26 22 21 20 19 18 16 13 11 9 7 4 3 2 3 4 5 5 3
4 9 7 9 9 7 8 11 7 10 15 20 25 32 38 41 42 44 46 45 45 45 44 43 43 41 38 35 31 29 26 23 21 20 19 18 16 14 11 10 7 4 3 2 1 2 2 1 1
9 6 5 7 2 1 8 12 11 16 15 23 28 34 37 38 45 45 48 47 45 46 44 44 43 42 39 36 33 30 27 24 22 22 21 19 17 14 12 10 8 6 4 3 2 1 0 0 2
8 9 12 3 6 9 16 22 19 15 15 17 26 27 34 42 44 40 45 47 46 47 46 48 47 45 42 40 38 35 33 28 25 24 22 20 18 17 14 11 8 6 5 3 3 1 1 1 3
15 19 19 11 8 8 12 25 12 9 17 18 25 28 34 39 43 40 42 48 50 49 48 50 50 48 46 42 40 38 34 30 25 25 24 22 20 18 14 11 9 7 5 4 3 3 3 3 4
19 20 14 16 3 9 9 31 18 10 16 24 29 36 38 40 42 45 46 49 51 52 53 53 52 49 46 43 43 38 33 29 30 29 26 24 22 19 15 12 9 6 6 5 4 4 5 4 5
23 9 12 11 3 9 7 15 12 15 16 7 15 30 38 41 39 39 44 49 54 56 52 52 53 52 48 47 46 40 35 35 34 31 28 26 22 18 16 12 10 8 6 5 4 4 3 4 4
13 7 13 10 6 4 8 6 15 11 9 7 10 28 34 36 36 38 42 46 56 55 57 55 54 54 52 50 45 39 36 34 31 30 29 26 23 20 16 13 11 9 8 6 4 3 2 3 4
11 5 12 10 8 9 13 12 23 6 11 7 10 11 15 18 26 34 37 37 43 48 53 55 56 56 56 53 48 42 38 38 39 37 33 30 25 21 18 16 13 11 9 7 5 4 4 4 4
5 6 3 6 6 12 13 11 22 8 6 5 7 17 21 16 13 27 35 39 44 50 54 55 57 58 58 54 50 43 38 38 40 36 33 30 26 23 20 17 14 12 9 9 7 6 4 3 3
13 11 7 8 6 8 9 10 7 7 8 13 14 17 25 26 13 21 31 35 40 43 49 54 56 60 60 57 44 41 37 38 39 34 33 29 26 23 20 18 15 13 11 10 8 6 4 4 3
11 14 24 8 1 0 5 3 1 5 12 14 16 25 29 28 22 3 17 28 33 38 43 48 52 56 57 46 45 39 34 40 41 36 34 32 29 25 22 19 17 14 12 12 8 5 5 5 4
9 6 4 7 8 9 6 4 6 3 6 6 9 10 23 26 17 6 9 18 24 31 39 44 47 55 51 48 43 32 24 37 42 40 37 33 29 28 24 21 18 15 14 12 9 7 6 6 5
6 9 3 3 4 5 3 5 1 7 4 5 5 12 18 17 18 5 2 8 15 22 31 38 43 46 49 48 40 35 39 45 46 40 37 35 33 28 25 21 17 17 15 13 9 9 8 7 6
2 3 17 8 9 3 1 3 5 4 3 4 4 17 17 14 10 7 5 9 12 17 25 34 39 43 51 49 38 37 41 48 46 40 37 35 34 30 24 20 19 17 15 13 11 10 8 9 8
Wind_Direction
244 287 252 152 58 64 255 256 249 263 283 344 258 125 244 94 180 202 154 173 172 171 171 171 176 179 181 182 187 188 186 184 181 178 177 175 172 172 172 176 177 163 107 58 20 2 352 345 336
279 264 200 134 96 82 266 245 229 235 249 181 346 328 29 282 228 150 156 167 169 167 170 169 171 181 187 185 189 191 190 189 185 185 183 183 182 179 176 171 153 133 92 13 349 342 336 333 330
268 233 230 117 143 194 221 224 236 248 305 261 190 225 242 228 222 169 163 168 172 168 179 176 180 178 176 180 192 193 192 191 190 188 184 181 177 171 164 158 155 150 69 336 327 325 325 331 333
226 181 117 111 235 254 216 242 272 314 312 277 212 214 224 221 171 168 163 173 174 175 182 183 182 181 181 182 187 186 188 189 186 184 183 178 171 165 163 162 167 198 251 306 319 326 333 339 338
199 184 196 246 254 262 249 265 274 266 266 271 221 204 203 194 179 173 171 178 181 179 186 184 185 186 192 192 189 187 186 184 183 180 176 175 173 170 168 178 193 230 284 330 340 341 345 344 341
171 137 104 246 247 255 264 258 253 241 287 291 179 157 185 180 181 175 177 183 188 188 190 188 189 191 192 187 188 187 187 185 182 178 179 181 184 185 186 196 215 270 321 344 349 352 350 348 344
149 109 231 243 265 275 242 189 219 274 286 237 179 170 209 190 188 186 184 186 194 196 197 195 193 192 191 190 190 189 188 186 183 184 190 193 194 198 200 204 224 285 340 354 357 355 352 346 343
192 124 216 231 228 279 204 186 297 309 302 198 190 212 234 202 188 185 185 188 198 201 200 203 196 193 191 190 190 191 190 189 190 197 198 198 199 202 202 209 210 276 346 16 359 353 348 344 339
193 136 230 225 177 251 228 307 285 312 220 203 212 252 264 209 184 181 183 191 197 200 204 206 200 197 192 192 192 191 192 195 199 200 199 200 206 207 203 206 208 209 27 10 358 349 344 339 334
163 180 232 194 203 261 253 206 292 254 209 234 245 241 244 200 188 186 189 193 194 198 201 202 201 198 194 193 195 195 197 201 201 201 203 207 208 203 200 197 203 189 2 352 343 337 336 333 328
197 238 200 240 247 258 270 241 271 222 263 240 234 227 211 200 195 195 198 200 198 199 202 205 200 197 197 197 198 200 200 202 202 204 206 208 204 199 198 194 191 200 325 331 318 318 330 344 344
223 249 235 267 269 265 249 258 234 222 256 273 264 242 212 205 203 204 204 204 201 202 204 205 202 201 199 200 202 203 203 203 205 207 207 207 204 197 197 192 190 216 270 279 288 340 353 343 334
217 257 271 268 272 270 281 273 254 242 276 271 251 237 223 217 214 209 208 208 206 206 204 204 204 203 201 200 203 203 204 205 206 209 209 205 201 201 200 201 211 231 249 259 351 344 336 332 325
254 266 275 287 283 259 238 267 196 262 261 257 241 231 220 219 217 208 208 212 211 208 206 203 204 204 203 202 203 206 207 208 207 206 207 203 201 204 206 209 215 223 237 348 328 320 325 332 341
259 289 292 274 245 236 240 275 220 265 235 221 223 226 222 221 216 218 218 212 213 210 207 206 203 204 205 205 204 206 208 208 208 208 206 204 204 207 209 212 214 226 243 297 313 330 356 8 357
307 270 270 259 27 275 178 260 272 270 223 219 220 218 221 222 227 222 220 217 215 212 209 207 206 205 204 206 206 207 207 207 208 208 206 203 204 206 210 209 209 207 227 286 328 5 18 7 333
219 258 234 299 209 242 182 273 263 295 238 237 231 228 224 224 223 223 222 221 218 215 211 207 207 205 203 204 206 206 207 206 206 206 205 204 203 205 211 215 210 205 211 208 62 45 9 308 245
223 233 227 223 281 156 286 268 270 280 236 245 255 242 233 229 228 225 222 223 220 218 213 211 207 205 204 204 203 205 205 205 205 207 206 205 205 204 209 215 209 198 188 153 124 110 229 220 229
242 264 250 224 284 298 274 275 274 267 256 239 249 239 234 234 241 231 225 225 222 219 214 211 208 206 205 204 203 203 204 204 206 205 205 205 203 205 208 209 211 197 174 152 150 184 211 193 215
232 242 254 277 244 257 287 280 268 242 257 230 238 239 240 245 239 235 230 227 224 221 215 212 210 208 207 210 209 210 205 205 208 205 202 202 203 206 207 205 207 193 173 166 185 196 202 215 225
232 231 238 249 286 263 307 286 285 242 240 246 238 247 252 247 242 234 228 227 222 221 218 212 209 208 209 210 210 208 207 207 205 204 204 202 203 203 202 202 200 190 184 187 201 209 208 205 200
248 206 229 234 207 266 178 289 274 272 255 232 241 239 243 245 241 233 230 224 223 222 217 213 210 209 209 212 211 210 211 212 210 207 201 201 201 201 202 198 201 198 193 201 212 216 204 196 198
243 193 227 228 226 251 199 260 278 351 292 250 251 251 254 254 245 234 231 234 226 217 216 212 209 208 209 209 211 209 215 220 222 210 205 200 203 200 200 199 204 201 202 207 211 223 209 198 188
232 252 264 258 245 248 234 207 277 205 242 227 253 304 321 299 265 246 238 221 217 215 215 211 208 208 210 208 208 209 214 214 213 208 203 200 200 201 197 201 203 206 206 210 213 222 221 195 169
141 165 227 225 199 240 164 192 233 148 39 18 343 349 352 341 289 237 222 218 217 217 215 213 208 207 210 206 205 211 213 217 214 208 206 202 200 202 202 202 204 209 205 211 214 215 219 209 168
193 173 202 220 205 244 170 229 235 91 59 46 37 29 22 14 355 233 229 222 218 214 214 213 208 206 209 207 202 207 214 217 215 212 209 206 208 203 201 203 205 206 205 215 217 210 217 221 198
203 212 224 292 25 39 220 261 292 68 51 39 30 30 23 15 17 295 230 220 214 208 208 209 206 206 209 204 205 205 208 220 214 211 209 208 203 202 204 204 204 204 208 210 211 212 215 221 211
202 162 146 201 236 236 230 224 223 72 65 45 34 19 31 32 22 49 192 210 218 211 208 208 208 211 210 207 204 202 211 213 216 210 208 206 205 203 200 202 201 204 208 214 202 208 213 219 218
177 214 174 143 189 209 233 255 322 111 116 88 41 7 10 23 22 10 183 215 228 224 215 213 210 215 210 209 201 212 214 211 212 212 209 205 206 204 201 197 203 203 209 212 205 207 211 216 212
88 290 213 206 200 213 186 222 99 110 76 45 13 3 348 354 3 17 236 216 206 220 224 222 215 214 212 203 207 222 218 214 208 209 215 209 208 202 200 200 198 205 208 210 207 207 207 215 200
Height
1495 1497 1497 1498 1508 1513 1516 1505 1493 1488 1484 1481 1479 1480 1479 1477 1478 1487 1476 1477 1481 1485 1489 1493 1496 1500 1504 1507 1510 1513 1516 1519 1521 1523 1524 1525 1526 1526 1527 1528 1529 1530 1530 1532 1532 1533 1534 1534 1534
1495 1496 1497 1497 1515 1521 1515 1494 1489 1482 1479 1479 1479 1479 1477 1476 1476 1475 1477 1479 1483 1486 1490 1493 1496 1500 1503 1507 1509 1512 1516 1518 1520 1522 1524 1525 1526 1526 1527 1528 1530 1530 1531 1531 1532 1532 1532 1532 1533
1493 1495 1497 1500 1515 1516 1508 1486 1481 1478 1478 1478 1478 1477 1476 1475 1474 1476 1477 1479 1482 1487 1491 1494 1497 1500 1503 1507 1509 1512 1515 1517 1519 1521 1522 1524 1526 1526 1527 1528 1529 1529 1530 1530 1530 1531 1531 1531 1531
1491 1495 1498 1505 1507 1498 1490 1480 1478 1476 1474 1474 1475 1476 1475 1474 1473 1475 1477 1480 1482 1486 1491 1495 1497 1499 1503 1506 1508 1511 1514 1516 1519 1520 1522 1523 1524 1524 1526 1527 1527 1528 1528 1528 1529 1530 1530 1530 1529
1489 1492 1501 1505 1500 1491 1482 1478 1479 1476 1475 1470 1472 1470 1472 1471 1473 1475 1478 1480 1482 1483 1488 1493 1497 1499 1502 1505 1509 1512 1514 1516 1518 1520 1522 1523 1523 1524 1525 1526 1526 1527 1527 1527 1528 1529 1529 1529 1528
1488 1489 1504 1508 1495 1485 1477 1476 1475 1472 1470 1467 1469 1469 1468 1468 1470 1473 1477 1482 1484 1483 1485 1489 1494 1498 1501 1505 1508 1511 1513 1515 1517 1518 1520 1522 1522 1523 1523 1525 1525 1525 1527 1527 1527 1528 1528 1528 1528
1485 1492 1498 1495 1491 1483 1475 1472 1472 1470 1467 1466 1464 1469 1466 1465 1468 1471 1476 1480 1484 1484 1485 1485 1488 1493 1498 1502 1506 1508 1510 1512 1515 1516 1518 1519 1521 1522 1523 1523 1524 1525 1526 1526 1527 1528 1527 1527 1527
1481 1485 1490 1492 1489 1476 1467 1469 1468 1468 1465 1464 1465 1463 1461 1459 1463 1469 1475 1479 1482 1484 1486 1487 1490 1491 1494 1499 1503 1506 1508 1511 1513 1514 1515 1516 1519 1520 1521 1523 1523 1525 1526 1527 1527 1527 1527 1527 1526
1478 1486 1492 1486 1485 1470 1465 1467 1466 1466 1464 1464 1463 1461 1459 1459 1462 1467 1471 1475 1478 1481 1483 1486 1488 1492 1494 1498 1501 1502 1505 1508 1510 1511 1513 1515 1517 1518 1520 1522 1523 1524 1525 1526 1526 1525 1525 1525 1524
1475 1482 1473 1469 1469 1465 1462 1465 1463 1465 1463 1461 1460 1458 1457 1458 1460 1463 1464 1467 1469 1474 1478 1481 1485 1489 1493 1496 1499 1502 1504 1506 1508 1509 1512 1514 1516 1517 1519 1520 1522 1523 1523 1524 1524 1524 1525 1525 1523
1468 1467 1462 1460 1461 1461 1458 1459 1459 1459 1460 1453 1451 1451 1451 1454 1457 1460 1462 1464 1468 1472 1475 1479 1483 1486 1489 1493 1496 1500 1502 1505 1508 1510 1511 1513 1514 1516 1517 1518 1520 1521 1522 1523 1523 1524 1524 1524 1522
1467 1458 1457 1454 1455 1457 1455 1453 1452 1453 1449 1447 1446 1447 1447 1448 1450 1452 1455 1460 1465 1468 1473 1478 1482 1484 1487 1491 1493 1496 1500 1503 1506 1509 1510 1511 1513 1515 1516 1517 1518 1519 1520 1521 1522 1522 1521 1522 1522
1462 1457 1453 1452 1453 1451 1451 1449 1447 1445 1442 1443 1443 1442 1443 1443 1444 1449 1454 1459 1462 1465 1468 1475 1480 1483 1485 1488 1492 1494 1497 1499 1503 1506 1508 1511 1512 1513 1514 1516 1517 1518 1519 1519 1518 1519 1520 1520 1521
1455 1454 1451 1448 1447 1447 1447 1440 1444 1433 1437 1437 1437 1436 1436 1438 1439 1443 1448 1452 1456 1460 1465 1470 1475 1480 1483 1485 1489 1492 1494 1498 1500 1503 1506 1508 1510 1511 1513 1514 1516 1518 1518 1516 1516 1517 1518 1518 1519
1452 1455 1448 1442 1441 1441 1439 1440 1435 1430 1431 1430 1431 1432 1433 1434 1438 1436 1438 1444 1451 1456 1460 1464 1470 1476 1480 1483 1485 1487 1491 1494 1498 1501 1504 1505 1507 1509 1511 1513 1515 1516 1516 1515 1515 1515 1515 1516 1517
1454 1451 1452 1438 1436 1436 1436 1433 1424 1425 1424 1423 1424 1424 1426 1427 1426 1430 1435 1439 1445 1452 1455 1462 1466 1469 1474 1480 1483 1485 1488 1493 1496 1499 1501 1503 1505 1508 1510 1511 1512 1513 1514 1514 1513 1512 1513 1515 1516
1456 1451 1450 1441 1431 1432 1434 1429 1422 1422 1421 1421 1421 1421 1418 1419 1423 1426 1430 1433 1438 1445 1451 1457 1461 1465 1470 1475 1480 1482 1485 1489 1493 1496 1499 1501 1503 1506 1509 1510 1510 1511 1511 1512 1511 1511 1512 1514 1515
1448 1453 1447 1444 1433 1431 1432 1427 1422 1419 1420 1418 1416 1416 1417 1418 1415 1417 1422 1427 1432 1439 1447 1453 1458 1462 1467 1471 1474 1479 1483 1485 1489 1493 1496 1498 1501 1503 1505 1509 1509 1509 1510 1509 1510 1511 1512 1513 1513
1438 1442 1440 1437 1433 1433 1427 1415 1413 1412 1411 1411 1409 1409 1411 1410 1408 1416 1419 1423 1428 1431 1439 1444 1451 1456 1462 1465 1468 1473 1477 1482 1485 1489 1492 1496 1498 1500 1502 1504 1508 1508 1507 1508 1508 1510 1511 1511 1512
1435 1434 1431 1429 1430 1431 1423 1399 1405 1406 1400 1400 1401 1401 1401 1401 1403 1407 1411 1415 1418 1424 1430 1437 1442 1449 1455 1461 1464 1469 1474 1479 1484 1486 1489 1492 1494 1498 1500 1501 1504 1505 1506 1506 1508 1509 1510 1510 1509
1424 1423 1428 1429 1427 1425 1425 1390 1391 1387 1387 1388 1389 1389 1388 1388 1389 1394 1399 1402 1409 1414 1419 1425 1434 1444 1451 1458 1460 1465 1472 1477 1479 1482 1485 1489 1491 1494 1497 1499 1502 1502 1503 1504 1506 1508 1509 1507 1507
1420 1417 1418 1423 1431 1436 1422 1407 1386 1380 1376 1380 1379 1378 1376 1377 1380 1384 1388 1393 1396 1401 1412 1420 1427 1434 1440 1448 1456 1459 1466 1470 1475 1479 1482 1485 1489 1492 1494 1496 1498 1499 1500 1502 1504 1506 1507 1506 1505
1410 1412 1414 1417 1423 1429 1424 1428 1360 1373 1376 1376 1372 1368 1367 1371 1373 1374 1377 1378 1383 1393 1399 1409 1418 1426 1433 1438 1446 1453 1459 1464 1473 1479 1481 1482 1486 1488 1491 1493 1496 1497 1498 1499 1500 1504 1505 1506 1505
1404 1412 1414 1413 1415 1426 1402 1420 1373 1380 1370 1365 1362 1364 1368 1369 1370 1371 1375 1383 1386 1392 1398 1401 1409 1415 1421 1427 1438 1446 1450 1457 1466 1470 1473 1476 1480 1485 1487 1491 1493 1495 1496 1497 1497 1499 1503 1504 1503
1403 1414 1423 1423 1420 1406 1393 1406 1364 1364 1370 1370 1370 1368 1367 1363 1364 1366 1369 1375 1377 1379 1387 1398 1402 1410 1416 1420 1431 1443 1449 1455 1461 1465 1469 1473 1476 1481 1484 1487 1489 1494 1494 1495 1494 1496 1499 1501 1501
1389 1396 1403 1401 1403 1395 1391 1392 1373 1375 1376 1375 1373 1370 1367 1362 1359 1363 1367 1371 1378 1380 1386 1392 1398 1402 1408 1414 1426 1435 1445 1453 1455 1459 1463 1467 1473 1476 1480 1484 1487 1491 1491 1495 1495 1493 1496 1499 1499
1378 1390 1366 1389 1390 1406 1391 1378 1375 1375 1375 1374 1375 1371 1369 1365 1361 1364 1369 1373 1376 1376 1385 1392 1396 1400 1405 1419 1423 1428 1438 1446 1448 1452 1456 1458 1463 1470 1475 1479 1483 1487 1489 1492 1491 1492 1495 1497 1499
1365 1368 1387 1386 1391 1385 1379 1379 1371 1378 1380 1378 1377 1379 1373 1370 1373 1370 1371 1376 1383 1379 1383 1391 1394 1395 1407 1413 1419 1424 1429 1435 1445 1447 1449 1454 1461 1463 1467 1474 1479 1481 1488 1491 1485 1490 1493 1496 1497
1366 1367 1369 1371 1384 1381 1387 1380 1374 1378 1381 1380 1376 1378 1375 1375 1375 1373 1373 1375 1380 1387 1390 1394 1392 1398 1400 1409 1415 1418 1421 1428 1437 1444 1448 1450 1454 1459 1464 1467 1473 1479 1484 1486 1485 1489 1491 1495 1495
1361 1358 1354 1361 1364 1373 1374 1370 1377 1383 1381 1377 1376 1373 1371 1373 1374 1374 1374 1374 1373 1379 1387 1396 1396 1397 1400 1404 1407 1413 1417 1424 1427 1433 1448 1449 1451 1455 1460 1462 1469 1476 1479 1482 1482 1486 1489 1493 1494